Flag for Malaysia Weather past 2 weeks in Kuching, Malaysia

81 °F

Partly sunny.

Feels Like: 87 °F
Forecast: 77 / 85 °F
Wind: 2 mph from Northwest

Location: Kuching Airport

Current Time: Nov 25, 2015 at 10:13:51 AM

Latest Report: Nov 25, 2015 at 9:30 AM

Visibility: N/A

Pressure: 29.83 "Hg

Humidity: 89%

Dew point: 77 °F

Location of KuchingLocation

Historic Weather in Kuching — Graph


Kuching temperature yesterday

Maximum temperature yesterday: 88 °F (at 12:00 PM)
Minimum temperature yesterday: 77 °F (at 1:00 AM)
Average temperature yesterday: 79 °F

Past Weeks' High & Low Weather Summary

High93 °F (Nov 11, 2:30 PM)100% (Nov 11, 8:00 AM)29.92 "Hg (Nov 11, 8:00 AM)
Low73 °F (Nov 13, 4:00 AM)53% (Nov 11, 3:00 PM)29.68 "Hg (Nov 20, 4:00 PM)
Average80 °F89%29.80 "Hg
* Reported Nov 10 9:00 AM — Nov 25 9:00 AM, Kuching, Weather by CustomWeather, © 2015

Note: Actual official high and low records may vary slightly from our data, if they occured in-between our weather recording intervals... More about our weather records


Kuching weather history for previous 24 hours

Time TempWeatherWind HumidityBarometerVisibility
9:00 AM
Wed, Nov 25
79 °FPartly sunny.1 mph94%29.83 "HgN/A
8:30 AM77 °FPartly sunny.2 mph94%29.83 "HgN/A
7:30 AM75 °FFog.3 mph100%29.80 "Hg3 mi
7:00 AM75 °FFog.1 mph100%29.80 "Hg2 mi
6:30 AM75 °FFog.2 mph100%29.80 "Hg2 mi
6:00 AM75 °FFog.2 mph100%29.77 "Hg2 mi
5:30 AM75 °FFog.2 mph100%29.77 "Hg1 mi
5:00 AM75 °FFog.3 mph100%29.77 "Hg1 mi
4:30 AM75 °FFog.2 mph100%29.77 "Hg1 mi
4:00 AM75 °FFog.2 mph100%29.77 "Hg1 mi
3:30 AM75 °FPassing clouds.2 mph100%29.77 "Hg4 mi
3:00 AM75 °FPartly cloudy.1 mph100%29.77 "HgN/A
2:30 AM75 °FPartly cloudy.1 mph100%29.77 "HgN/A
2:00 AM75 °FPartly cloudy.3 mph100%29.77 "HgN/A
1:30 AM75 °FPartly cloudy.1 mph100%29.80 "HgN/A
1:00 AM75 °FPartly cloudy.1 mph100%29.80 "HgN/A
12:30 AM77 °FPassing clouds.3 mph94%29.83 "HgN/A
12:00 AM77 °FPassing clouds.3 mph94%29.83 "HgN/A
11:30 PM
Tue, Nov 24
77 °FPassing clouds.5 mph94%29.83 "HgN/A
11:00 PM77 °FPartly cloudy.5 mph94%29.83 "HgN/A
10:30 PM77 °FPartly cloudy.3 mph94%29.83 "HgN/A
10:00 PM77 °FPartly cloudy.3 mph94%29.83 "HgN/A
9:30 PM77 °FPartly cloudy.2 mph94%29.80 "HgN/A
9:00 PM77 °FPartly cloudy.5 mph94%29.80 "HgN/A
8:30 PM77 °FPartly cloudy.5 mph94%29.80 "HgN/A
8:00 PM77 °FPartly cloudy.6 mph94%29.77 "HgN/A
7:30 PM79 °FPartly cloudy.2 mph94%29.77 "HgN/A
7:00 PM79 °FPartly cloudy.3 mph94%29.77 "HgN/A
6:30 PM79 °FPartly cloudy.3 mph94%29.77 "HgN/A
6:00 PM79 °FBroken clouds.7 mph94%29.77 "HgN/A
5:30 PM77 °FBroken clouds.5 mph100%29.77 "HgN/A
5:00 PM77 °FLight rain. Broken clouds.6 mph100%29.77 "Hg5 mi
4:30 PM77 °FLight rain. Broken clouds.7 mph100%29.74 "Hg3 mi
4:00 PM79 °FRain. Broken clouds.6 mph94%29.74 "Hg2 mi
3:30 PM79 °FHeavy rain. Broken clouds.8 mph94%29.77 "Hg1 mi
3:00 PM79 °FRain. Broken clouds.7 mph94%29.77 "Hg2 mi
2:30 PM81 °FRain. Broken clouds.3 mph94%29.77 "Hg2 mi
2:00 PM81 °FSprinkles. Broken clouds.7 mph94%29.77 "HgN/A
1:30 PM81 °FSprinkles. Broken clouds.8 mph94%29.80 "Hg5 mi
1:00 PM86 °FBroken clouds.8 mph75%29.80 "HgN/A
12:30 PM88 °FPartly sunny.2 mph70%29.80 "HgN/A
12:00 PM88 °FPartly sunny.1 mph70%29.83 "HgN/A
11:30 AM86 °FBroken clouds.2 mph75%29.83 "HgN/A
11:00 AM84 °FBroken clouds.3 mph79%29.86 "HgN/A
10:30 AM84 °FPartly sunny.2 mph79%29.86 "HgN/A
10:00 AM82 °FBroken clouds.2 mph84%29.86 "HgN/A
Weather by CustomWeather, © 2015

See weather overviewHow to use our weather pages